Flock 4g-9

operational
NORAD ID: 62622 Int'l Des: 2025-009 Owner: PLAN Country: US Constellation: planet
LEOCIRCULARRETROGRADESSO

Flock 4g-9について

説明を読み込み中...

リアルタイム位置

3D地球を読み込み中...

次回通過

高度履歴

Altitude vs Time

uPlot chart will show altitude changes over time

軌道要素

1 62622U 25009P 25340.90187781 .00015384 00000-0 63861-3 0 9997
2 62622 97.4149 58.6674 0003752 285.8964 74.1860 15.23926571 49537
Epoch: Dec 6, 2025 • Age: 15 hours

現在のステータス

高度 505.5 km
速度 7.61 km/s
衛星直下点 -32.59°S, 33.38°W
打ち上げ日 Jan 14, 2025
運用期間 0.8 years
タイプ earth observation

技術仕様

分類 Payload
質量 5.70 kg
乾燥質量 5.70 kg
総質量 5.70 kg
長さ 0.30 m
直径 0.10 m
スパン 0.30 m
形状 Box+2 pan
製造者 PLAN
バスタイプ Cubesat 3U
フェーズステータス In Orbit
所有者/国 PLAN/US

大規模コンステレーション

Loading constellations...